Orbital Elements at Epoch 2459200.5 (2020-Dec-17.0) TDB
Reference: JPL 10 (heliocentric ecliptic J2000)
Element | Value | Uncertainty (1-sigma) | Units |
e | .09623845997006453 | 6.9449e-08 | |
a | 2.604962172181932 | 2.9375e-08 | au |
q | 2.354264624450869 | 1.9064e-07 | au |
i | 2.783656014833635 | 6.2043e-06 | deg |
node | 261.2241215491549 | 0.00017614 | deg |
peri | 306.5044263683621 | 0.00018142 | deg |
M | 184.1066766976209 | 4.8898e-05 | deg |
tp | 2459950.821536552729 (2023-Jan-06.32153655) | 0.00021599 | TDB |
period | 1535.679399806581 4.20 | 2.5975e-05 7.112e-08 | d yr |
n | .2344239299201006 | 3.9652e-09 | deg/d |
Q | 2.855659719912996 | 3.2202e-08 | au |
|
| | Orbit Determination Parameters
Additional Information
|